sat.trackr.live / text

‹ back to catalog

STARLINK-3751

NORAD 52289 · 2022-041AE

PAYLOAD ACTIVE UNKNOWN

§ Identity

Operator
Country
US
Launch date
2022-04-21
Launch site
AFETR
Launch vehicle
Mass (kg)
RCS (m²)

Purposes: comms

External: N2YO · Heavens-Above · Gunter

§ Orbital elements

Epoch: 2026-09-19T17:19:21.243360Z

Period
94.01 min
Inclination
53.1601°
Eccentricity
0.0002274
Mean motion
15.31695356 rev/d
Perigee alt
469.2 km
Apogee alt
472.3 km
Semi-major
6,848.9 km
B*
7.3854e-5
RAAN
295.4245°
Arg perigee
45.7570°
Mean anomaly
314.3618°
Rev number
24,396

§ Raw data

STARLINK-37511 52289U 22041AE  26262.72177365  .00001926  00000+0  73854-4 0  99992 52289  53.1601 295.4245 0002274  45.7570 314.3618 15.31695356243962

JSON: /api/v1/satellites/52289 · /tle

For live sub-satellite position, see the globe view (requires WebGL).

§ Visibility from observer

Set your observer location to see the next 7 days of passes ≥ 10°. The values pass through the URL so the page stays shareable.

No JS? Fill the form by hand. The geolocation button needs JavaScript.